Home   Weather   Uelzen   Past weeks

Flag for Germany Past Weather in Uelzen, Lower Saxony, Germany — Yesterday and Last 2 Weeks

43 °F

Light rain. Passing clouds.

Feels Like: 39 °F
Forecast: 38 / 49 °F
Wind: 6 mph from East

Location: Fassberg

Current Time: Oct 22, 2016 at 7:22:37 AM

Latest Report: Oct 22, 2016 at 6:20 AM

Visibility: 4 mi

Pressure: 29.89 "Hg

Humidity: 93%

Dew Point: 41 °F

Location of UelzenLocation

Past Weather in Uelzen — Graph


Uelzen Temperature Yesterday

Maximum temperature yesterday: 46 °F (at 11:20 AM)
Minimum temperature yesterday: 41 °F (at 12:20 AM)
Average temperature yesterday: 44 °F

High & Low Weather Summary for the Past Weeks

High63 °F (Oct 16, 2:20 PM)100% (Oct 8, 10:20 PM)30.27 "Hg (Oct 8, 10:20 PM)
Low36 °F (Oct 9, 1:20 AM)54% (Oct 10, 3:20 PM)29.77 "Hg (Oct 15, 5:20 AM)
Average47 °F89%30.09 "Hg
* Reported Oct 7 5:20 AM — Oct 22 5:20 AM, Uelzen, Weather by CustomWeather, © 2016

Note: Actual official high and low records may vary slightly from our data, if they occured in-between our weather recording intervals... More about our weather records


Uelzen Weather History for the Previous 24 Hours

Scroll right to see more
Time TempWeatherWind HumidityBarometerVisibility
5:20 AM
Sat, Oct 22
43 °FRain. Fog.8 mph93%29.89 "Hg3 mi
4:20 AM43 °FFog.6 mph100%29.89 "Hg3 mi
3:20 AM43 °FPassing clouds.7 mph100%29.89 "Hg4 mi
2:20 AM43 °FPassing clouds.7 mph100%29.89 "Hg4 mi
1:20 AM45 °FFog.7 mph93%29.89 "Hg2 mi
12:20 AM45 °FFog.6 mph93%29.89 "Hg3 mi
11:20 PM
Fri, Oct 21
43 °FFog.3 mph100%29.92 "Hg3 mi
10:20 PM43 °FPartly cloudy.3 mph93%29.89 "HgN/A
9:45 PM43 °FPartly cloudy.2 mph100%29.89 "HgN/A
9:20 PM43 °FPassing clouds.2 mph100%29.89 "HgN/A
9:00 PM43 °FPassing clouds.1 mph100%29.89 "HgN/A
8:20 PM43 °FLight rain. Passing clouds.1 mph100%29.89 "HgN/A
7:20 PM43 °FPassing clouds.1 mph93%29.89 "HgN/A
6:45 PM43 °FPartly cloudy.5 mph93%29.89 "Hg4 mi
6:20 PM45 °FPartly cloudy.6 mph87%29.89 "Hg4 mi
5:45 PM46 °FBroken clouds.1 mph93%29.89 "Hg4 mi
5:20 PM46 °FPartly sunny.3 mph93%29.89 "HgN/A
4:20 PM46 °FBroken clouds.2 mph93%29.89 "Hg5 mi
3:20 PM46 °FBroken clouds.3 mph93%29.89 "Hg5 mi
2:20 PM46 °FFog.5 mph93%29.89 "Hg3 mi
1:20 PM46 °FDrizzle. Fog.2 mph93%29.89 "Hg1 mi
12:20 PM46 °FLight rain. Fog.3 mph93%29.89 "Hg2 mi
11:20 AM46 °FRain. Fog.5 mph93%29.89 "Hg2 mi
10:20 AM45 °FLight rain. Fog.6 mph93%29.89 "Hg1 mi
9:20 AM45 °FFog.6 mph93%29.89 "Hg1 mi
8:20 AM45 °FFog.3 mph93%29.89 "Hg1 mi
7:20 AM45 °FFog.6 mph93%29.89 "Hg2 mi
Weather by CustomWeather, © 2016

See weather overviewHow to use our weather pages